Location: Arrington
(35.8681°N, 86.7092°W)
Time: 22:55:58
(UTC+00:00)

STARLINK 1065 - Pass Details

Date: 23 November 2019
Orbit: 430 x 432 km, 53.0° (Epoch: 07 December)

Event Time Altitude Azimuth Distance (km) Brightness Sun altitude
Exits shadow 11:21:43 17° 239° (WSW) 1,177 4.9 -14.0°
Maximum altitude 11:24:14 63° 318° (NW) 482 3.1 -13.5°
Drops below altitude 10° 11:27:37 10° 40° (NE) 1,522 6.2 -12.8°
Sets 11:29:45 0° 44° (NE) 2,390 7.3 -12.4°
